Regional Weather Roundup
Issued by NWS

Home | Current Version | Previous Version | Graphics & Text | Print | Product List | Glossary On
Versions: 1 2 3 4 5 6 7 8 9 10 11 12 13 14 15 16 17 18 19 20 21 22 23 24 25 26 27 28 29 30 31 32 33 34 35 36 37 38 39 40 41 42 43 44 45 46 47 48 49 50
000
ASUS43 KMKX 032000
RWRWI

WISCONSIN REGIONAL WEATHER ROUNDUP
NATIONAL WEATHER SERVICE MILWAUKEE/SULLIVAN WI
300 PM CDT WED JUN 03 2015

NOTE: "FAIR" INDICATES FEW OR NO CLOUDS BELOW 12,000 FEET WITH NO
SIGNIFICANT WEATHER AND/OR OBSTRUCTIONS TO VISIBILITY.

WIZ001-002-006>008-014>016-023>028-032100-
NORTHWEST WISCONSIN

CITY           SKY/WX    TMP DP  RH WIND       PRES   REMARKS
SUPERIOR ARPT  CLOUDY    55  52  90 CALM      29.90S
ASHLAND        CLOUDY    64  58  80 CALM      29.91R
HAYWARD        CLOUDY    68  56  65 S13       29.92F
SIREN          CLOUDY    67  58  71 SW10      29.90S
CUMBERLAND     LGT RAIN  63  55  77 SW5       29.93S
RICE LAKE      CLOUDY    67  55  65 CALM      29.93F
CHETEK         CLOUDY    67  58  72 CALM      29.92F
LADYSMITH      CLOUDY    70  58  64 S6        29.95R
EAU CLAIRE     NOT AVBL
MENOMONIE      DRIZZLE   67  60  79 W6        29.91S
NEW RICHMOND   RAIN      61  61  99 NE3       29.90F
OSCEOLA        RAIN      62  62 100 SE5       29.92F
$$

WIZ003>005-009-010-017-018-032100-
NORTH CENTRAL WISCONSIN

CITY           SKY/WX    TMP DP  RH WIND       PRES   REMARKS
MANITOWISH WTR PTSUNNY   75  55  49 S13G18    29.93S
ARBOR VITAE    PTSUNNY   76  54  47 S18G24    29.94R
WOODRUFF       PTSUNNY   76  54  47 S18G24    29.94R
RHINELANDER    PTSUNNY   74  52  46 SW12G23   29.96R
EAGLE RIVER    PTSUNNY   74  50  42 SE12G18   29.94R
LAND O LAKES   PTSUNNY   78  50  37 SE12      29.94S
PHILLIPS       CLOUDY    73  56  55 S12       29.93R
TOMAHAWK       PTSUNNY   73  55  53 S7        29.94S
MEDFORD        CLOUDY    70  56  61 S15G22    29.95R
MERRILL        NOT AVBL
$$

WIZ029-030-035-036-043>047-032100-
CENTRAL WISCONSIN

CITY           SKY/WX    TMP DP  RH WIND       PRES   REMARKS
WAUSAU         PTSUNNY   75  55  49 S10G23    29.92F
MOSINEE        MOSUNNY   73  55  53 S15       29.95F
MARSHFIELD     CLOUDY    73  56  54 S17G23    29.93S
STEVENS POINT  PTSUNNY   75  55  48 S14       29.95F
WAUPACA        PTSUNNY   78  54  43 S15G22    29.96F
WAUTOMA        NOT AVBL
WISC RAPIDS    CLOUDY    76  54  46 S15G21    29.94F
CAMP DOUGLAS   CLOUDY    73  61  64 S12G18    29.94S
$$

WIZ011>013-019>022-031-037>040-048>050-032100-
NORTHEAST WISCONSIN

CITY           SKY/WX    TMP DP  RH WIND       PRES   REMARKS
ANTIGO         CLOUDY    69  55  62 S13       29.97F
SHAWANO        CLOUDY    76  54  46 SE12      29.98S
OCONTO         MOSUNNY   71  51  48 S12G20    29.99S
STURGEON BAY   MOSUNNY   66  46  48 S14G20    30.04S
GREEN BAY      PTSUNNY   74  47  38 S16       29.99S
MANITOWOC      NOT AVBL
APPLETON       MOSUNNY   73  52  46 SE14G20   29.99S
CLINTONVILLE   PTSUNNY   73  52  46 SE14      29.97S
OSHKOSH        MOSUNNY   76  54  46 S15G22    29.97F
$$

WIZ032>034-041-042-053>061-032100-
SOUTHWEST WISCONSIN

CITY           SKY/WX    TMP DP  RH WIND       PRES   REMARKS
LA CROSSE      CLOUDY    75  58  55 S10       29.90F
SPARTA         CLOUDY    73  55  51 S10G16    29.93S
VIROQUA        CLOUDY    75  56  52 SE15      29.94R
BOSCOBEL       PTSUNNY   78  57  48 MISG      29.93S
PRAIRIE DU CHI CLOUDY    77  54  44 S7        29.91R
PLATTEVILLE    PTSUNNY   76  59  55 SE17G25   29.95S
$$

WIZ056-057-062-063-064-067-068-032100-
SOUTH CENTRAL WISCONSIN

CITY           SKY/WX    TMP DP  RH WIND       PRES   REMARKS
REEDSBURG      CLOUDY    74  59  58 S12       29.95S
BARABOO/DELLS  CLOUDY    73  56  57 S12       29.96S
LONE ROCK      NOT AVBL
MINERAL POINT  PTSUNNY   75  55  50 SE10G20   29.96S
MADISON        CLOUDY    76  56  49 S14       29.96F
MIDDLETON      PTSUNNY   76  53  44 S13       29.97F
WATERTOWN      MOSUNNY   75  57  53 S9        29.98S
MONROE         PTSUNNY   75  57  53 S17G24    29.98S
JANESVILLE     MOSUNNY   79  55  44 S12G17    29.98S
$$

WIZ051-052-058>065-066-070>072-032100-
SOUTHEAST WISCONSIN

CITY           SKY/WX    TMP DP  RH WIND       PRES   REMARKS
MILWAUKEE      PTSUNNY   64  50  60 SE16      30.02F
WAUKESHA       MOSUNNY   72  52  49 SE9       30.01S
MILWAUKEE/TIMM SUNNY     68  46  45 SE14G20   30.02F
RACINE         SUNNY     65  51  60 SE10      30.04F
BURLINGTON     MOSUNNY   75  53  47 S10       30.00S
KENOSHA        MOSUNNY   69  53  56 SE13      30.02F
FOND DU LAC    MOSUNNY   74  55  51 SE15      29.97F
SHEBOYGAN      MOSUNNY   65  51  60 SE10      30.03S
WEST BEND      MOSUNNY   68  48  49 SE14      30.01F
JUNEAU         PTSUNNY   73  56  55 SE13      29.99F
$$

LSZ147-162-032100-
LAKE SUPERIOR

STATION/POSITION TIME  TEMP    WIND        PRES    WAVE
                       AIR SEA DIR/SP/G            HT/PER
                 (UTC) (F)     (DEG/KT/KT) (MB)    (FT/S)
W MID LAKE BUOY  1850   42 37   70/  8/  8   N/A     1
DEVILS ISLAND    1900   50      70/  8/  9   N/A
PORT WING        1940   49     350/  1/  4   N/A
SAXON HARBOR     1900   58        CALM       N/A
$$

LMZ867-665-643>646-032100-
LAKE MICHIGAN

STATION/POSITION TIME  TEMP    WIND        PRES    WAVE
                       AIR SEA DIR/SP/G            HT/PER
                 (UTC) (F)     (DEG/KT/KT) (MB)    (FT/S)
CHAMBERS ISLAND  1900   68     150/  8/ 14   N/A
N MID LAKE BUOY  1850   44 37  230/  8/ 10   N/A     1/ 3
NORTHPORT PIER   1900   64     170/  6/ 16   N/A
SISTER BAY       1933   69     180/ 20/ 23   N/A
ALGOMA LAKESHORE 1909          210/ 15/ 16   N/A
KEWAUNEE LAKESHO 1900   50     180/ 12/ 14   N/A
SHEBOYGAN LAKESH 1900   48     160/ 10/ 11   N/A
PORT WASHINGTON  1940   54     170/  6/  7   N/A
ATWATER BUOY     1900   49 49  160/  8/ 10   N/A
MILWAUKEE LAKESH 1900   51     120/  5/  7   N/A
S MID LAKE BUOY  1850   50 39  140/  4/  6   N/A     0
KENOSHA   LAKESH 1900   54     150/  7/  8   N/A
$$

TC  - TEMPERATURE IN CELSIUS
VSB - VISIBILITY IN STATUTE MILES
WCI - WIND CHILL INDEX
HX  - HEAT INDEX




USA.gov is the U.S. government's official web portal to all federal, state and local government web resources and services.